BYNCTR-WX Weather Reports


time (UTC)temp
F
wind
direction
speed
knots
gust
knots
rain 1hr
in
rain 24hr
in
rain mn
in
humidity
%
barometer
mb
20260503044605 36 185 3.5 0.0 0.00 0.00 0.00 69 988.0
20260503043125 36 182 4.3 0.0 0.00 0.00 0.00 70 987.4
20260503041606 37 185 4.3 0.0 0.00 0.00 0.00 70 987.4
20260503040139 37 196 4.3 0.0 0.00 0.00 0.00 70 987.4
20260503034606 37 196 4.3 0.0 0.00 0.00 0.00 68 988.7
20260503033127 37 198 4.3 0.0 0.00 0.00 0.00 68 988.7
20260503031606 38 199 5.2 0.0 0.00 0.00 0.00 68 988.8
20260503030138 38 201 4.3 0.0 0.00 0.00 0.00 68 988.8
20260503024606 39 205 4.3 0.0 0.00 0.00 0.00 62 989.7
20260503023125 39 199 3.5 0.0 0.00 0.00 0.00 67 989.1
20260503021606 39 210 4.3 0.0 0.00 0.00 0.00 67 989.0
20260503020135 40 216 4.3 0.0 0.00 0.00 0.00 67 989.0
20260503014606 40 230 4.3 0.0 0.00 0.00 0.00 56 988.8
20260503013124 41 234 5.2 0.0 0.00 0.00 0.00 56 988.8
20260503011606 41 231 4.3 0.0 0.00 0.00 0.00 56 988.8
20260503010135 42 238 4.3 0.0 0.00 0.00 0.00 56 988.8
20260503004605 43 247 4.3 0.0 0.00 0.00 0.00 40 989.5
20260503003119 44 243 4.3 0.0 0.00 0.00 0.00 40 989.7
20260503001606 45 250 4.3 0.0 0.00 0.00 0.00 40 989.7
20260503000141 46 265 4.3 0.0 0.00 0.00 0.00 40 989.7
20260502234607 47 280 5.2 0.0 0.00 0.00 0.00 35 989.6
20260502233119 47 284 6.1 0.0 0.00 0.00 0.00 35 989.7
20260502231607 48 287 6.1 0.0 0.00 0.00 0.00 35 989.7
20260502230133 48 288 7.0 0.0 0.00 0.00 0.00 35 989.7
20260502224606 48 288 7.8 0.0 0.00 0.00 0.00 33 990.0
20260502223125 48 285 8.7 0.0 0.00 0.00 0.00 33 990.8
20260502221607 48 284 9.6 0.0 0.00 0.00 0.00 33 990.8
20260502220134 48 282 9.6 0.0 0.00 0.00 0.00 33 990.8
20260502214607 48 283 10.4 0.0 0.00 0.00 0.00 34 990.9
20260502213125 48 281 9.6 0.0 0.00 0.00 0.00 37 990.6
20260502211607 48 278 9.6 0.0 0.00 0.00 0.00 37 990.6
20260502210136 48 276 9.6 0.0 0.00 0.00 0.00 37 990.6
20260502204606 48 274 9.6 0.0 0.00 0.00 0.00 38 991.1
20260502203125 48 271 8.7 0.0 0.00 0.00 0.00 36 991.4
20260502201607 48 272 9.6 0.0 0.00 0.00 0.00 36 991.4
20260502200133 48 272 9.6 0.0 0.00 0.00 0.00 36 991.4
20260502194607 48 274 9.6 0.0 0.00 0.00 0.00 29 991.6
20260502193120 48 275 10.4 0.0 0.00 0.00 0.00 29 991.6
20260502191607 49 278 11.3 0.0 0.00 0.00 0.00 29 991.7
20260502190134 49 281 10.4 0.0 0.00 0.00 0.00 29 991.7
20260502184607 48 283 10.4 0.0 0.00 0.00 0.00 38 991.7
20260502183126 48 292 10.4 0.0 0.00 0.00 0.00 38 991.7
20260502181606 48 290 10.4 0.0 0.00 0.00 0.00 38 991.7
20260502180140 47 287 9.6 0.0 0.00 0.00 0.00 38 991.7
20260502170130 46 278 8.7 0.0 0.00 0.00 0.00 42 992.1
20260502163126 46 280 8.7 0.0 0.00 0.00 0.00 40 991.0
20260502161606 45 281 7.8 0.0 0.00 0.00 0.00 40 991.0
20260502160137 45 285 7.0 0.0 0.00 0.00 0.00 40 991.0
20260502151607 43 300 6.1 0.0 0.00 0.00 0.00 52 991.1
20260502150140 42 299 6.1 0.0 0.00 0.00 0.00 52 991.1
20260502130135 36 336 3.5 0.0 0.00 0.00 0.00 74 991.7
20260502123124 35 327 3.5 0.0 0.00 0.00 0.00 79 991.8
20260502121607 34 326 3.5 0.0 0.00 0.00 0.00 79 991.8
20260502120149 33 317 3.5 0.0 0.00 0.00 0.00 79 991.8
20260502114607 32 306 2.6 0.0 0.00 0.00 0.00 84 991.7
20260502113128 32 284 0.9 0.0 0.00 0.00 0.00 86 991.7
20260502111606 31 270 0.9 0.0 0.00 0.00 0.00 86 991.4
20260502110135 31 281 0.9 0.0 0.00 0.00 0.00 86 991.4
20260502104606 31 270 0.0 0.0 0.00 0.00 0.00 86 991.2
20260502103125 31 338 0.9 0.0 0.00 0.00 0.00 86 991.5
20260502101606 31 329 0.9 0.0 0.00 0.00 0.00 86 991.5
20260502100136 31 310 0.9 0.0 0.00 0.00 0.00 86 991.5
20260502090135 31 291 2.6 0.0 0.00 0.00 0.00 85 991.0
20260502070137 31 315 2.6 0.0 0.00 0.00 0.00 82 990.2
20260502064606 31 313 2.6 0.0 0.00 0.00 0.00 76 991.4
20260502063126 31 297 2.6 0.0 0.00 0.00 0.00 77 991.3
20260502061606 32 286 3.5 0.0 0.00 0.00 0.00 77 991.3
20260502060152 32 288 3.5 0.0 0.00 0.00 0.00 77 991.3
20260502054606 32 288 3.5 0.0 0.00 0.00 0.00 74 990.6
20260502053125 32 288 3.5 0.0 0.00 0.00 0.00 77 991.0
20260502051605 32 291 3.5 0.0 0.00 0.00 0.00 77 991.0
20260502050137 32 295 3.5 0.0 0.00 0.00 0.00 77 991.0